User: anonymous   Login
Location: Valdosta
(30.8330°N, 83.2790°W)
Time: 23:37:13
(UTC-05:00)
Language:

Uribyol 2 - Orbit

View from above orbital plane
View from above orbital plane
View from above satellite
View from above satellite

Ground track
Ground track

The orbit data is extracted from the following two-line orbital elements,

1 22828U 93061F   14326.29122292  .00000277  00000-0  12340-3 0  7645
2 22828 098.6688 271.1079 0010576 152.3580 207.8166 14.30389854 71844
Epoch (UTC): 22 November 2014 06:59:21
Eccentricity: 0.0010576
inclination: 98.6688°
perigee height: 783 km
apogee height: 798 km
right ascension of ascending node: 271.1079°
argument of perigee: 152.3580°
revolutions per day: 14.30389854
mean anomaly at epoch: 207.8166°
orbit number at epoch: 7184

The dashed part of the orbit path shows where the satellite is in the earth's shadow,  

DLR